Wind_Speed
10 10 10 10 10 10 10 10 10 11 11 11 10 11 11 10 10 9 9 9 9 9 9 8 6 4 3 3 4 5 7 9 10 12 14 12 12 12 14 13 13 14 12
11 13 13 13 14 15 15 14 14 15 15 16 17 17 17 15 13 12 10 9 10 10 10 10 9 8 7 5 5 4 5 6 8 10 13 15 14 13 16 15 16 16 15
16 17 17 18 17 18 19 19 19 19 19 19 21 22 21 23 20 17 15 13 11 11 11 11 11 11 10 8 7 7 6 6 6 8 11 13 17 16 14 15 13 19 20
18 19 20 22 23 24 24 24 25 26 25 24 25 24 26 25 24 23 23 21 19 17 15 13 13 13 12 11 9 7 7 8 8 8 9 11 14 19 19 16 14 16 15
20 22 23 23 22 23 23 24 25 26 26 28 27 33 29 29 31 28 28 28 27 25 23 19 18 17 16 14 13 12 10 9 9 10 10 11 12 15 20 20 18 14 14
23 23 23 23 23 23 24 23 23 25 26 27 30 34 34 32 29 32 32 30 30 32 31 28 25 24 23 21 19 16 15 13 11 10 11 12 13 13 16 19 19 16 16
23 24 26 25 25 25 25 25 25 23 24 23 24 30 33 34 36 36 37 34 35 35 32 32 32 32 30 28 25 22 19 18 15 13 12 13 14 14 14 16 20 21 19
17 18 21 21 21 23 24 25 25 26 26 24 21 18 17 24 25 34 36 33 38 37 36 37 35 35 34 35 32 29 24 21 20 17 15 14 14 15 15 15 17 23 26
17 15 15 16 16 16 18 19 20 21 22 24 22 18 12 20 19 20 22 28 31 35 37 39 40 39 36 35 39 34 29 25 24 21 18 17 16 15 15 14 17 20 25
15 17 17 17 16 15 16 16 16 18 20 20 20 18 21 25 19 23 27 23 21 25 29 31 32 39 44 41 36 36 35 30 29 28 24 21 18 19 17 16 16 18 23
16 17 18 19 19 19 19 19 18 17 17 17 16 16 17 19 24 24 21 24 29 30 27 28 29 32 35 40 41 42 40 36 32 32 29 25 23 22 22 19 18 17 20
17 18 21 21 20 22 23 22 22 21 17 15 15 16 17 17 15 16 19 19 20 24 25 27 32 36 31 30 31 38 42 35 35 33 33 31 26 23 23 21 19 18 19
18 20 22 25 26 27 27 25 23 21 18 17 16 16 16 17 19 20 23 25 31 35 35 37 36 34 29 35 36 31 29 35 35 35 35 37 32 28 23 22 20 20 19
22 22 25 28 30 30 26 22 20 20 18 17 19 18 18 19 21 22 21 22 27 27 20 23 33 22 29 41 39 35 32 29 32 35 33 34 37 33 27 25 22 22 22
21 24 27 28 25 26 23 18 20 20 18 18 19 19 19 21 23 21 19 19 23 23 27 26 21 23 28 23 24 33 34 34 36 34 32 33 34 35 31 28 26 25 25
21 24 29 26 23 21 19 18 19 18 18 19 19 18 18 18 19 21 23 21 20 25 30 25 27 20 25 23 25 27 33 35 40 40 37 34 36 35 34 31 30 28 27
23 28 28 26 23 18 17 17 17 19 19 21 21 21 22 19 21 22 21 23 26 25 29 32 21 26 27 25 35 24 18 29 28 35 35 36 36 37 36 34 31 30 29
23 27 26 24 22 18 18 18 19 20 23 22 22 23 24 24 25 24 23 26 27 27 27 27 25 31 21 23 31 34 20 21 23 26 32 35 35 36 34 32 31 30 29
23 27 25 23 20 19 19 19 20 18 18 20 22 23 24 25 25 24 25 26 24 26 26 25 25 24 27 24 23 26 29 23 25 28 32 33 36 35 33 31 29 28 27
22 25 23 23 21 20 19 19 19 20 22 23 23 24 25 24 22 22 23 24 29 26 24 27 23 23 22 23 22 20 23 24 23 23 26 31 34 33 31 29 28 28 27
25 25 25 23 20 17 17 19 20 23 25 27 24 24 22 22 24 25 24 24 22 28 25 26 26 20 23 22 23 21 20 23 22 21 22 28 33 33 30 29 28 28 28
25 24 23 21 21 21 21 23 24 25 27 28 27 25 23 21 24 23 24 26 30 28 26 27 25 23 23 24 20 21 19 19 24 23 24 31 33 34 30 30 28 25 22
24 21 20 19 20 19 23 27 26 26 28 28 26 24 24 21 21 20 18 19 20 27 32 30 27 26 26 22 22 22 20 19 23 18 20 32 31 26 26 28 24 22 21
22 19 19 18 17 20 27 28 26 25 24 24 21 18 17 18 18 17 17 18 19 19 24 30 34 32 28 26 22 20 18 20 21 26 19 24 25 26 24 25 20 21 21
16 16 17 17 18 20 26 31 30 27 26 21 19 14 11 11 13 10 13 18 18 20 21 23 26 29 29 30 30 27 25 19 20 20 25 25 25 24 25 22 21 19 17
17 16 16 14 16 21 24 29 28 28 29 22 18 15 12 11 8 9 15 18 22 25 25 27 28 30 30 33 30 30 28 26 20 20 22 27 20 22 18 23 23 19 18
Wind_Direction
285 287 282 279 282 284 284 283 275 270 266 264 262 261 257 260 262 260 258 257 256 259 268 273 270 271 263 258 246 242 246 246 240 234 231 227 228 230 234 229 227 220 211
283 284 282 273 276 274 275 273 274 273 267 263 262 262 258 260 262 260 248 247 251 257 267 272 272 270 265 252 255 253 247 250 252 245 237 231 231 234 240 241 233 223 220
288 284 282 280 275 270 269 270 269 268 269 266 262 265 265 261 259 256 251 253 250 244 250 259 270 271 267 261 255 253 261 260 257 257 249 241 233 234 240 239 236 225 219
289 291 290 284 278 275 272 272 270 268 267 266 266 264 264 264 259 256 256 252 250 249 250 252 256 259 260 262 264 267 266 262 264 267 261 251 243 234 236 234 237 234 245
288 287 285 284 281 279 278 275 273 270 269 264 265 266 259 259 258 256 258 256 251 249 249 250 252 255 253 246 252 265 277 283 272 262 268 263 253 243 235 231 234 240 240
290 287 281 277 275 274 276 276 275 272 271 269 262 257 264 262 256 254 256 253 256 255 250 251 253 251 251 251 249 253 260 269 285 278 262 266 265 254 247 235 229 228 235
291 291 285 279 277 276 274 273 273 274 271 272 274 270 265 261 260 255 254 251 253 251 251 250 255 257 251 245 248 248 253 258 268 279 275 265 265 265 254 247 230 223 228
300 297 294 290 285 280 278 277 275 273 271 271 276 275 280 270 264 257 252 252 250 250 251 252 254 255 257 250 244 246 248 252 257 266 273 274 266 265 263 251 240 226 227
317 319 314 307 303 299 295 291 287 283 277 270 266 262 272 266 273 257 259 256 253 251 251 252 258 255 255 254 249 245 242 247 253 257 264 267 272 265 264 259 247 235 227
329 327 328 328 326 318 310 305 298 291 287 283 278 267 257 260 269 270 261 262 258 256 254 251 251 254 253 248 245 242 247 247 252 250 253 255 264 271 265 262 257 246 233
333 326 323 322 324 325 323 318 310 299 290 283 280 277 272 267 263 266 275 262 256 257 255 254 256 261 254 249 246 247 248 250 245 243 244 244 256 267 266 263 261 257 244
331 323 324 323 320 321 319 312 310 303 293 280 277 275 273 269 265 271 274 275 258 255 249 254 255 250 243 247 250 250 250 246 239 238 240 241 243 253 259 259 260 259 256
321 319 322 322 317 314 312 307 305 303 292 283 278 276 273 269 266 266 270 276 282 277 267 260 253 256 257 252 245 244 250 240 240 243 241 239 240 238 245 254 261 261 260
311 315 315 312 309 309 306 299 298 303 295 285 279 276 277 273 275 273 264 268 271 274 278 267 240 251 250 252 252 246 246 239 237 238 238 242 239 233 237 249 257 264 261
317 315 318 314 311 309 312 299 296 302 297 293 283 277 274 271 271 272 269 264 262 273 267 267 268 257 252 259 254 247 241 238 235 236 240 238 233 229 235 245 254 260 260
317 322 324 321 315 311 308 296 297 301 296 293 290 285 277 275 273 267 267 264 262 261 267 266 259 260 253 257 243 238 241 240 244 243 240 237 232 233 235 241 249 256 256
328 327 331 331 329 320 310 303 298 298 296 295 288 287 281 275 272 272 268 264 263 261 262 260 265 261 254 263 249 236 247 235 239 236 235 234 233 233 231 234 244 252 250
327 331 334 331 330 326 323 315 304 296 297 293 291 289 280 278 277 274 272 271 265 260 262 265 261 266 261 259 257 245 259 243 244 244 235 233 233 230 227 230 241 246 242
331 331 333 329 327 323 321 320 317 311 309 303 300 295 288 284 280 276 269 265 262 266 260 261 268 264 261 261 264 259 255 253 250 249 242 236 229 226 225 228 236 237 240
323 334 335 334 329 321 319 316 313 308 305 301 304 297 286 282 276 280 274 269 261 256 261 261 261 262 260 255 254 259 251 247 249 246 243 237 225 218 219 225 230 236 240
341 339 342 342 341 337 331 325 315 310 309 307 303 300 287 283 278 279 273 271 265 258 254 260 260 257 259 252 251 254 256 245 244 241 237 233 211 210 213 219 227 234 244
336 343 350 350 351 357 353 345 333 318 315 310 305 300 299 289 291 286 273 268 261 257 254 253 254 251 253 247 249 248 248 242 240 239 230 229 213 210 213 220 228 240 243
333 343 350 354 360 6 357 345 333 321 319 318 316 305 294 292 300 292 285 280 273 253 250 252 253 249 248 245 250 251 245 244 237 229 233 231 214 209 210 222 234 231 237
338 346 352 1 9 10 2 354 341 330 331 334 323 311 296 285 294 290 281 279 271 262 250 247 247 249 245 242 239 241 242 245 241 241 244 236 207 207 212 221 224 226 235
351 353 0 2 4 7 1 358 354 354 351 344 337 330 311 300 300 287 293 294 287 278 271 262 253 252 249 244 249 245 244 247 239 235 238 202 198 201 210 219 219 229 233
6 4 11 11 5 358 2 5 1 2 360 353 352 350 340 323 305 297 295 296 290 285 281 271 261 254 251 247 244 236 240 231 237 235 237 196 188 200 212 221 221 221 233
Height
1548 1548 1548 1548 1547 1547 1546 1546 1545 1545 1544 1544 1544 1545 1546 1545 1545 1545 1544 1545 1545 1546 1547 1547 1547 1547 1547 1547 1547 1546 1547 1547 1548 1549 1551 1552 1553 1554 1555 1556 1558 1560 1561
1546 1546 1545 1545 1544 1544 1543 1542 1542 1542 1541 1541 1541 1542 1542 1542 1541 1541 1541 1542 1542 1543 1544 1545 1545 1545 1545 1545 1545 1545 1545 1545 1546 1546 1548 1549 1550 1551 1553 1553 1555 1557 1559
1544 1543 1542 1541 1540 1540 1539 1539 1538 1537 1537 1537 1537 1538 1538 1538 1537 1537 1538 1538 1539 1539 1541 1541 1542 1542 1543 1543 1543 1543 1543 1543 1544 1544 1545 1546 1547 1548 1549 1550 1552 1553 1555
1541 1539 1538 1536 1535 1535 1534 1534 1533 1533 1532 1532 1532 1533 1533 1532 1532 1532 1532 1533 1535 1536 1536 1538 1538 1539 1540 1540 1541 1541 1541 1541 1541 1542 1542 1542 1543 1545 1546 1548 1550 1552 1553
1539 1537 1534 1531 1530 1529 1528 1527 1527 1526 1526 1525 1525 1525 1525 1525 1526 1527 1526 1527 1528 1530 1531 1533 1534 1535 1535 1536 1537 1537 1538 1538 1539 1539 1539 1539 1540 1541 1543 1545 1547 1549 1551
1534 1533 1530 1528 1526 1524 1523 1521 1521 1520 1519 1519 1518 1517 1517 1517 1518 1518 1519 1521 1521 1523 1525 1526 1528 1529 1530 1531 1532 1533 1533 1534 1535 1535 1536 1536 1536 1537 1539 1541 1543 1545 1547
1528 1528 1527 1523 1520 1518 1517 1516 1515 1514 1514 1512 1510 1509 1508 1508 1509 1509 1510 1512 1514 1515 1517 1518 1520 1522 1523 1525 1526 1528 1529 1530 1531 1532 1533 1533 1533 1533 1535 1537 1539 1542 1543
1524 1522 1523 1519 1515 1513 1511 1510 1509 1508 1507 1507 1506 1505 1501 1502 1501 1500 1502 1503 1505 1507 1508 1510 1512 1514 1516 1517 1519 1521 1523 1525 1527 1528 1529 1529 1530 1530 1531 1532 1535 1537 1539
1520 1517 1517 1516 1512 1509 1506 1504 1503 1501 1500 1500 1501 1501 1499 1495 1495 1495 1494 1495 1496 1498 1499 1501 1502 1504 1507 1509 1511 1514 1516 1519 1521 1523 1525 1525 1526 1527 1527 1528 1529 1532 1534
1516 1514 1513 1512 1509 1505 1503 1500 1499 1497 1495 1494 1493 1495 1494 1493 1492 1489 1490 1490 1489 1489 1490 1492 1494 1495 1498 1500 1502 1505 1508 1511 1514 1517 1519 1521 1521 1522 1523 1524 1525 1527 1528
1514 1513 1512 1509 1505 1502 1498 1496 1494 1493 1491 1489 1489 1488 1488 1487 1486 1484 1480 1480 1483 1484 1484 1485 1486 1487 1488 1490 1493 1495 1499 1502 1505 1509 1512 1514 1516 1518 1518 1519 1520 1521 1523
1511 1511 1509 1506 1502 1498 1495 1492 1489 1487 1485 1484 1484 1483 1482 1482 1481 1480 1476 1473 1473 1473 1475 1477 1477 1479 1481 1482 1484 1486 1490 1493 1497 1501 1504 1507 1510 1512 1513 1514 1515 1516 1517
1510 1509 1505 1502 1498 1494 1490 1487 1484 1482 1480 1479 1478 1477 1477 1475 1474 1474 1473 1469 1467 1466 1466 1468 1469 1472 1473 1474 1476 1479 1481 1485 1488 1491 1495 1499 1502 1506 1507 1508 1509 1510 1512
1508 1505 1501 1497 1492 1487 1483 1481 1479 1477 1474 1473 1472 1471 1470 1469 1468 1467 1467 1467 1463 1461 1459 1458 1462 1464 1464 1466 1468 1471 1474 1476 1479 1483 1486 1489 1493 1497 1500 1503 1504 1504 1506
1504 1500 1496 1491 1486 1481 1477 1475 1473 1471 1469 1467 1466 1465 1464 1463 1462 1462 1461 1460 1459 1456 1453 1455 1456 1458 1459 1459 1459 1462 1465 1468 1471 1474 1477 1480 1484 1489 1493 1496 1498 1499 1500
1500 1496 1491 1485 1479 1475 1472 1470 1468 1466 1464 1463 1461 1459 1459 1457 1456 1455 1455 1454 1453 1451 1448 1451 1450 1451 1452 1449 1452 1453 1456 1457 1461 1464 1468 1472 1476 1480 1485 1488 1491 1492 1493
1496 1491 1485 1479 1474 1471 1468 1465 1464 1461 1459 1457 1456 1454 1452 1452 1450 1448 1448 1447 1446 1445 1442 1442 1442 1443 1443 1443 1443 1445 1447 1448 1452 1455 1459 1463 1467 1471 1476 1480 1483 1485 1486
1492 1486 1481 1476 1472 1468 1465 1461 1459 1456 1454 1451 1449 1447 1445 1444 1443 1442 1441 1439 1438 1438 1437 1435 1437 1436 1435 1436 1435 1436 1438 1441 1444 1447 1450 1454 1458 1463 1468 1472 1475 1477 1479
1488 1483 1477 1472 1468 1464 1461 1458 1454 1451 1448 1446 1443 1441 1439 1437 1434 1433 1433 1432 1432 1430 1430 1430 1429 1430 1430 1431 1431 1430 1431 1434 1437 1439 1442 1445 1450 1455 1460 1464 1468 1470 1472
1485 1479 1474 1468 1464 1460 1457 1453 1449 1446 1443 1440 1437 1434 1431 1429 1428 1426 1425 1424 1424 1423 1423 1423 1422 1423 1424 1425 1425 1424 1425 1429 1431 1434 1435 1437 1442 1448 1453 1457 1461 1463 1465
1481 1476 1470 1465 1460 1456 1453 1449 1445 1441 1437 1433 1430 1427 1424 1422 1421 1419 1418 1416 1416 1415 1416 1416 1416 1417 1417 1418 1418 1420 1420 1422 1424 1427 1429 1430 1435 1440 1445 1450 1453 1456 1459
1479 1473 1468 1463 1458 1454 1451 1446 1441 1436 1432 1427 1422 1420 1417 1415 1413 1410 1409 1408 1408 1407 1407 1408 1409 1410 1410 1412 1413 1413 1415 1416 1418 1420 1421 1424 1429 1433 1439 1443 1447 1450 1453
1476 1471 1466 1461 1457 1454 1450 1444 1438 1432 1426 1421 1416 1412 1410 1408 1406 1404 1402 1400 1398 1398 1399 1401 1401 1402 1403 1404 1407 1407 1409 1410 1412 1414 1416 1419 1423 1429 1434 1438 1441 1444 1447
1473 1468 1464 1460 1456 1453 1448 1441 1434 1427 1421 1415 1410 1405 1402 1401 1400 1398 1396 1393 1392 1391 1391 1391 1391 1392 1395 1398 1399 1401 1404 1404 1406 1408 1411 1413 1415 1425 1429 1433 1436 1439 1441
1471 1467 1463 1459 1455 1452 1446 1439 1430 1424 1418 1411 1405 1401 1399 1398 1396 1394 1392 1389 1386 1384 1383 1382 1382 1382 1385 1388 1392 1396 1397 1400 1400 1402 1405 1411 1412 1420 1423 1427 1431 1434 1436
1470 1466 1463 1459 1455 1450 1445 1438 1431 1423 1417 1409 1405 1402 1399 1397 1394 1392 1389 1385 1381 1378 1376 1375 1373 1373 1375 1378 1382 1386 1390 1393 1396 1397 1398 1405 1408 1415 1420 1423 1426 1429 1431